#timestamp,LO_Frequency,Hit,StdDev 
1512532815.3,286046987.6,N
1512532835.1,286046987.4,N
1512532855.8,286046985.3,N
1512532875.7,286046985.5,N
1512532895.5,286046988.2,N
1512532915.3,286046988.3,N
1512532935.2,286046988.6,N
1512532955.9,286046993.4,N
1512532975.7,286046995.3,N
1512532995.6,286046998.0,N
1512533015.4,286046994.0,N
1512533035.2,286046998.0,N
1512533055.1,286046994.9,N
1512533056.0,286046994.9,N
1512533075.8,286046998.6,N
1512533095.6,286047001.8,N
1512533115.5,286047006.3,N
1512533135.3,286047007.5,N
1512533155.1,286047010.2,N
1512533175.8,286047017.0,N
1512533195.7,286047018.9,N
1512533215.5,286047023.4,N
1512533235.3,286047023.0,N
1512533255.2,286047022.4,N
1512533275.9,286047024.3,N
1512533295.7,286047025.4,N
1512533315.6,286047028.0,N
1512533335.4,286047025.3,N
1512533355.2,286047025.7,N
1512533375.1,286047027.8,N
1512533376.0,286047027.8,N
1512533395.8,286047027.8,N
1512533415.6,286047028.0,N
1512533435.5,286047023.9,N
1512533455.3,286047024.6,N
1512533475.1,286047022.7,N
1512533495.8,286047017.4,N
1512533515.7,286047019.0,N
1512533535.5,286047021.4,N
1512533555.3,286047025.5,N
1512533575.2,286047029.9,N
1512533595.9,286047025.0,N
1512533615.7,286047024.2,N
1512533635.6,286047028.0,Y
1512533655.4,286047007.1,P
1512533675.2,286047009.2,N
1512533695.1,286047002.1,N
1512533696.0,286047002.1,N
1512533715.8,286047002.7,N
1512533735.6,286047000.4,N
1512533755.5,286047001.0,N
1512533775.3,286047001.4,N
1512533795.1,286047001.9,N
1512533815.9,286047002.1,N
1512533835.7,286046998.7,N
1512533855.5,286046997.0,N
1512533875.3,286046994.2,N
1512533895.2,286046993.7,N
1512533915.0,286047003.1,N
1512533915.9,286047003.1,N
1512533935.7,286047003.1,N
1512533955.6,286047005.5,N
1512533975.4,286047001.0,N
1512533995.2,286046999.7,N
1512534015.1,286047001.4,N
1512534016.0,286047001.4,N
1512534035.8,286047002.2,N
1512534055.6,286046999.9,N
1512534075.5,286047001.8,N
1512534095.3,286046999.4,N
1512534115.1,286046993.8,N
1512534135.9,286046996.0,N
1512534155.7,286046997.5,N
1512534175.5,286046994.0,N
1512534195.4,286046994.6,N
1512534215.2,286046992.8,N
1512534235.0,286046988.6,Y
1512534235.9,286046988.6,P
1512534255.8,286046983.7,N
1512534275.6,286046988.2,N
1512534295.4,286046991.2,N
1512534315.2,286046986.9,N
1512534335.1,286046985.9,N
1512534336.0,286046985.9,N
1512534355.8,286046989.4,N
1512534375.6,286046990.6,N
1512534395.5,286046990.2,N
1512534415.3,286046992.0,N
1512534435.1,286046994.2,N
1512534455.9,286046998.5,N
1512534475.7,286047000.7,N
1512534495.5,286046995.4,N
1512534515.4,286046997.8,N
1512534535.2,286046998.4,N
1512534555.0,286046997.0,N
1512534555.9,286046997.0,N
1512534575.8,286046999.9,N
1512534595.6,286047004.1,N
1512534615.4,286047003.1,N
1512534635.2,286047000.0,N
1512534655.1,286046999.9,N
1512534656.0,286046999.9,N
1512534675.8,286047001.2,N
1512534695.6,286047000.0,N
1512534715.5,286046999.2,N
1512534735.3,286046995.7,N
1512534755.1,286047000.3,N
1512534775.9,286046999.9,N
1512534795.7,286046997.1,N
1512534815.5,286046998.4,N
1512534835.4,286047001.1,N
1512534855.2,286046999.8,N
1512534875.0,286046999.9,N
1512534875.9,286046999.9,N
1512534895.8,286046998.6,N
1512534915.6,286046999.6,N
1512534935.4,286046997.6,N
1512534955.2,286046995.3,N
1512534975.1,286046997.2,N
1512534976.0,286046997.2,N
1512534995.8,286046999.4,N
1512535015.6,286046999.1,N
1512535035.5,286046996.9,N
1512535055.3,286046996.8,N
1512535075.1,286046995.0,N
1512535095.9,286046995.4,N
1512535115.7,286046996.2,N
1512535135.5,286046992.2,Y
1512535155.4,286046994.2,P
1512535175.2,286046992.5,P
1512535195.0,286046992.3,N
1512535195.9,286046992.3,N
1512535215.8,286046989.5,Y
1512535235.6,286047000.9,P
1512535255.4,286047004.3,N
1512535275.3,286047002.2,N
1512535295.1,286047003.7,N
1512535296.0,286047003.7,N
1512535315.8,286047009.1,N
1512535335.7,286047013.7,Y
1512535355.5,286047009.5,P
1512535375.3,286047009.2,N
1512535395.2,286047005.3,N
1512535415.9,286047007.1,N
1512535435.7,286047008.3,Y
1512535455.6,286047002.2,P
1512535475.4,286047003.6,N
1512535495.2,286047003.2,N
1512535515.1,286046999.3,N
1512535516.0,286046999.3,N
1512535535.8,286047000.9,N
1512535555.6,286047003.7,N
1512535575.5,286047000.6,N
1512535595.3,286046996.8,N
1512535615.1,286046993.8,N
1512535635.8,286046995.4,N
1512535655.7,286046996.3,N
1512535675.5,286047000.5,N
1512535695.3,286046998.5,N
1512535715.2,286047000.3,N
1512535735.9,286047002.4,N
1512535755.7,286047003.6,N
1512535775.6,286047005.5,N
1512535795.4,286047003.3,N
1512535815.2,286047003.3,N
1512535835.1,286047001.8,N
1512535836.0,286047001.8,N
1512535855.8,286047002.2,N
1512535875.6,286047000.3,N
1512535895.4,286046998.5,N
1512535915.3,286047007.0,N
1512535935.1,286047007.6,N
1512535955.8,286047001.4,N
1512535975.7,286047000.5,N
1512535995.5,286047000.1,N
1512536015.3,286047001.7,N
1512536035.2,286047003.8,N
1512536055.9,286047003.8,N
1512536075.7,286047004.6,N
1512536095.6,286047005.4,N
1512536115.4,286047006.0,N
1512536135.2,286047009.2,N
1512536155.1,286047006.7,N
1512536156.0,286047006.7,N
1512536175.8,286047007.0,N
1512536195.6,286047006.1,N
1512536215.4,286047006.5,N
1512536235.3,286047007.5,N
1512536255.1,286047005.9,N
1512536275.8,286047002.2,N
1512536295.7,286047000.3,N
1512536315.5,286046997.7,N
1512536335.3,286046991.8,N
1512536355.2,286046995.5,N
1512536375.9,286046999.6,N
1512536395.7,286046993.7,N
